• In Belarus
  • List of Countries
  • For 7 days
  • Water Temperature
  • Satellite Maps
  • Weather Map
  • Weather Widgets
  • user-avatar
    Login

    Hourly Weather Mokhotlong

    Today, 17 February, Sunday

    Time Temperature Precipitation Wind Pressure Humidity
    00:00 +12°C° 0 mm 2 mps 585 mmHg 85%
    01:00 +10°C° 0 mm 2 mps 584 mmHg 86%
    02:00 +10°C° 0 mm 2 mps 584 mmHg 87%
    03:00 +9°C° 0 mm 2 mps 584 mmHg 87%
    04:00 +9°C° 0 mm 2 mps 584 mmHg 87%
    05:00 +9°C° 0 mm 2 mps 584 mmHg 87%
    06:00 +12°C° 0 mm 2 mps 585 mmHg 78%
    07:00 +13°C° 0 mm 2 mps 586 mmHg 69%
    08:00 +15°C° 0 mm 2 mps 587 mmHg 60%
    09:00 +17°C° 0 mm 2 mps 587 mmHg 51%
    10:00 +19°C° 0 mm 2 mps 588 mmHg 41%
    11:00 +21°C° 0 mm 2 mps 588 mmHg 32%
    12:00 +21°C° 0 mm 2 mps 588 mmHg 32%
    13:00 +23°C° 0 mm 2 mps 588 mmHg 32%
    14:00 +23°C° 0 mm 2 mps 588 mmHg 33%
    15:00 +23°C° 0 mm 2 mps 588 mmHg 37%
    16:00 +21°C° 0 mm 2 mps 588 mmHg 41%
    17:00 +20°C° 0 mm 2 mps 587 mmHg 45%
    18:00 +18°C° 0 mm 2 mps 587 mmHg 57%
    19:00 +16°C° 0 mm 2 mps 586 mmHg 70%
    20:00 +14°C° 0 mm 1 mps 586 mmHg 82%
    21:00 +14°C° 0 mm 1 mps 586 mmHg 85%
    22:00 +13°C° 0 mm 1 mps 586 mmHg 88%
    23:00 +13°C° 0 mm 1 mps 587 mmHg 91%

    Tomorrow, 18 February, Monday

    Time Temperature Precipitation Wind Pressure Humidity
    00:00 +13°C° 0 mm 1 mps 587 mmHg 92%
    01:00 +12°C° 0 mm 1 mps 586 mmHg 92%
    02:00 +11°C° 0 mm 0 mps 586 mmHg 93%
    03:00 +10°C° 0 mm 0 mps 585 mmHg 93%
    04:00 +9°C° 0 mm 0 mps 585 mmHg 92%
    05:00 +9°C° 0 mm 0 mps 584 mmHg 92%
    06:00 +10°C° 0 mm 0 mps 585 mmHg 81%
    07:00 +12°C° 0 mm 0 mps 586 mmHg 71%
    08:00 +14°C° 0 mm 0 mps 587 mmHg 60%
    09:00 +16°C° 0 mm 0 mps 588 mmHg 51%
    10:00 +20°C° 0 mm 1 mps 588 mmHg 41%
    11:00 +22°C° 0 mm 1 mps 589 mmHg 32%
    12:00 +23°C° 0 mm 1 mps 589 mmHg 32%
    13:00 +23°C° 0 mm 1 mps 588 mmHg 31%
    14:00 +24°C° 0 mm 1 mps 588 mmHg 31%
    15:00 +23°C° 0 mm 2 mps 588 mmHg 34%
    16:00 +23°C° 0 mm 2 mps 587 mmHg 36%
    17:00 +21°C° 0 mm 2 mps 587 mmHg 39%
    18:00 +19°C° 0 mm 2 mps 586 mmHg 49%
    19:00 +16°C° 0 mm 2 mps 586 mmHg 60%
    20:00 +14°C° 0 mm 2 mps 585 mmHg 70%
    21:00 +13°C° 0 mm 2 mps 585 mmHg 73%
    22:00 +13°C° 0 mm 2 mps 585 mmHg 75%
    23:00 +12°C° 0 mm 1 mps 585 mmHg 78%

    Day after tomorrow, 19 February, Tuesday

    Time Temperature Precipitation Wind Pressure Humidity
    00:00 +12°C° 0 mm 1 mps 585 mmHg 78%
    01:00 +11°C° 0 mm 1 mps 584 mmHg 79%
    02:00 +11°C° 0 mm 1 mps 584 mmHg 80%
    03:00 +11°C° 0 mm 1 mps 584 mmHg 76%
    04:00 +10°C° 0 mm 1 mps 583 mmHg 73%
    05:00 +10°C° 0 mm 1 mps 583 mmHg 70%
    06:00 +13°C° 0 mm 1 mps 585 mmHg 58%
    07:00 +16°C° 0 mm 1 mps 586 mmHg 47%
    08:00 +19°C° 0 mm 1 mps 588 mmHg 35%
    09:00 +21°C° 0 mm 1 mps 588 mmHg 34%
    10:00 +23°C° 0 mm 2 mps 589 mmHg 33%
    11:00 +24°C° 0 mm 2 mps 589 mmHg 31%
    12:00 +24°C° 0 mm 2 mps 589 mmHg 32%
    13:00 +24°C° 0 mm 2 mps 588 mmHg 33%
    14:00 +25°C° 0 mm 1 mps 588 mmHg 34%
    15:00 +24°C° 0.1 mm 1 mps 587 mmHg 38%
    16:00 +23°C° 0.1 mm 1 mps 587 mmHg 41%
    17:00 +22°C° 0.1 mm 1 mps 586 mmHg 45%
    18:00 +21°C° 0.1 mm 1 mps 586 mmHg 51%
    19:00 +19°C° 0.1 mm 1 mps 586 mmHg 58%
    20:00 +16°C° 0.1 mm 1 mps 585 mmHg 65%
    21:00 +16°C° 0 mm 1 mps 585 mmHg 66%
    22:00 +16°C° 0 mm 1 mps 585 mmHg 68%
    23:00 +15°C° 0 mm 1 mps 585 mmHg 70%

    20 February, Wednesday

    Time Temperature Precipitation Wind Pressure Humidity
    00:00 +15°C° 0 mm 1 mps 585 mmHg 71%
    01:00 +14°C° 0 mm 1 mps 584 mmHg 72%
    02:00 +13°C° 0 mm 1 mps 584 mmHg 74%
    03:00 +13°C° 0 mm 2 mps 584 mmHg 69%
    04:00 +14°C° 0 mm 2 mps 584 mmHg 64%
    05:00 +14°C° 0 mm 2 mps 584 mmHg 60%
    06:00 +16°C° 0 mm 2 mps 585 mmHg 56%
    07:00 +18°C° 0 mm 3 mps 586 mmHg 52%
    08:00 +20°C° 0 mm 3 mps 588 mmHg 47%
    09:00 +22°C° 0 mm 4 mps 588 mmHg 40%
    10:00 +25°C° 0 mm 4 mps 588 mmHg 32%
    11:00 +26°C° 0 mm 5 mps 589 mmHg 25%
    12:00 +27°C° 0 mm 6 mps 588 mmHg 23%
    13:00 +27°C° 0 mm 6 mps 588 mmHg 22%
    14:00 +28°C° 0 mm 6 mps 588 mmHg 20%
    15:00 +27°C° 0 mm 6 mps 588 mmHg 23%
    16:00 +27°C° 0 mm 6 mps 587 mmHg 26%
    17:00 +26°C° 0 mm 6 mps 587 mmHg 28%
    18:00 +22°C° 0 mm 5 mps 586 mmHg 31%
    19:00 +20°C° 0 mm 4 mps 586 mmHg 33%
    20:00 +17°C° 0 mm 2 mps 585 mmHg 35%
    21:00 +17°C° 0 mm 2 mps 585 mmHg 37%
    22:00 +16°C° 0 mm 2 mps 585 mmHg 38%
    23:00 +15°C° 0 mm 1 mps 586 mmHg 40%

    21 February, Thursday

    Time Temperature Precipitation Wind Pressure Humidity
    00:00 +15°C° 0 mm 1 mps 586 mmHg 37%
    01:00 +14°C° 0 mm 1 mps 585 mmHg 34%
    02:00 +14°C° 0 mm 1 mps 585 mmHg 31%
    03:00 +14°C° 0 mm 1 mps 585 mmHg 28%
    04:00 +13°C° 0 mm 1 mps 585 mmHg 25%
    05:00 +13°C° 0 mm 1 mps 585 mmHg 22%
    06:00 +15°C° 0 mm 1 mps 587 mmHg 21%
    07:00 +19°C° 0 mm 1 mps 589 mmHg 20%
    08:00 +22°C° 0 mm 1 mps 590 mmHg 19%
    09:00 +23°C° 0 mm 1 mps 591 mmHg 22%
    10:00 +24°C° 0 mm 2 mps 591 mmHg 24%
    11:00 +26°C° 0 mm 3 mps 591 mmHg 26%
    12:00 +25°C° 0.2 mm 3 mps 591 mmHg 28%
    13:00 +25°C° 0.2 mm 3 mps 590 mmHg 31%
    14:00 +25°C° 0.2 mm 3 mps 590 mmHg 33%
    15:00 +24°C° 0.5 mm 3 mps 589 mmHg 37%
    16:00 +24°C° 0.5 mm 3 mps 589 mmHg 41%
    17:00 +23°C° 0.5 mm 2 mps 589 mmHg 45%
    18:00 +20°C° 0.4 mm 2 mps 588 mmHg 53%
    19:00 +19°C° 0.4 mm 1 mps 588 mmHg 60%
    20:00 +16°C° 0.4 mm 1 mps 588 mmHg 67%
    21:00 +15°C° 0 mm 1 mps 587 mmHg 73%
    22:00 +15°C° 0 mm 2 mps 587 mmHg 79%
    23:00 +14°C° 0 mm 2 mps 587 mmHg 84%

    22 February, Friday

    Time Temperature Precipitation Wind Pressure Humidity
    00:00 +14°C° 0 mm 2 mps 587 mmHg 86%
    01:00 +13°C° 0 mm 2 mps 587 mmHg 87%
    02:00 +13°C° 0 mm 2 mps 586 mmHg 89%
    03:00 +13°C° 0 mm 2 mps 586 mmHg 82%
    04:00 +13°C° 0 mm 2 mps 586 mmHg 76%
    05:00 +12°C° 0 mm 2 mps 586 mmHg 70%
    06:00 +15°C° 0 mm 2 mps 587 mmHg 60%
    07:00 +18°C° 0 mm 2 mps 588 mmHg 51%
    08:00 +20°C° 0 mm 3 mps 589 mmHg 41%
    09:00 +22°C° 0 mm 4 mps 590 mmHg 39%
    10:00 +23°C° 0 mm 5 mps 590 mmHg 36%
    11:00 +26°C° 0 mm 6 mps 590 mmHg 33%
    12:00 +26°C° 0 mm 7 mps 589 mmHg 33%
    13:00 +26°C° 0 mm 7 mps 588 mmHg 32%
    14:00 +26°C° 0 mm 8 mps 588 mmHg 31%
    15:00 +26°C° 0 mm 7 mps 587 mmHg 34%
    16:00 +24°C° 0 mm 7 mps 587 mmHg 37%
    17:00 +23°C° 0 mm 7 mps 586 mmHg 40%
    18:00 +21°C° 0.1 mm 5 mps 585 mmHg 44%
    19:00 +19°C° 0.1 mm 4 mps 585 mmHg 49%
    20:00 +17°C° 0.1 mm 2 mps 584 mmHg 53%
    21:00 +16°C° 0 mm 2 mps 584 mmHg 53%
    22:00 +16°C° 0 mm 2 mps 584 mmHg 53%
    23:00 +15°C° 0 mm 2 mps 583 mmHg 53%
    Show more